This is the latest recevied weather packets stored in our database for station/object N9BID. If no packets are shown the sender has not sent any weather packets the latest 10 day(s).
| Time | Temp. | Humidity | Pressure | Rain* | Wind** | Luminosity | Snow |
|---|---|---|---|---|---|---|---|
| 1777773725 | 10.56° C | 61% | 1004 hPa | 0 mm | - | 0 W/m² | - |
| 1777773422 | 10.56° C | 63% | 1004 hPa | 0 mm | - | 0 W/m² | - |
| 1777773119 | 10.56° C | 61% | 1003.8 hPa | 0 mm | - | 0 W/m² | - |
| 1777772814 | 10.56° C | 58% | 1004.1 hPa | 0 mm | - | 0 W/m² | - |
| 1777772513 | 11.11° C | 58% | 1004 hPa | 0 mm | - | 0 W/m² | - |
| 1777772209 | 10.56° C | 59% | 1003.9 hPa | 0 mm | - | 0 W/m² | - |
| 1777771907 | 10° C | 62% | 1003.7 hPa | 0 mm | - | 0 W/m² | - |
| 1777771604 | 10.56° C | 60% | 1004 hPa | 0 mm | - | 0 W/m² | - |
| 1777771301 | 11.11° C | 59% | 1003.9 hPa | 0 mm | - | 0 W/m² | - |
| 1777770997 | 11.11° C | 57% | 1003.9 hPa | 0 mm | - | 0 W/m² | - |
| 1777770695 | 11.67° C | 55% | 1004 hPa | 0 mm | - | 0 W/m² | - |
| 1777770391 | 11.67° C | 55% | 1004.1 hPa | 0 mm | - | 1 W/m² | - |
| 1777770088 | 11.67° C | 56% | 1004.1 hPa | 0 mm | - | 2 W/m² | - |
| 1777769785 | 11.67° C | 54% | 1004.2 hPa | 0 mm | - | 4 W/m² | - |
| 1777769483 | 11.67° C | 55% | 1004.4 hPa | 0 mm | - | 6 W/m² | - |
| 1777769178 | 12.22° C | 53% | 1004.3 hPa | 0 mm | - | 9 W/m² | - |
| 1777768877 | 12.22° C | 52% | 1004.3 hPa | 0 mm | - | 11 W/m² | - |
| 1777768574 | 12.22° C | 51% | 1004.3 hPa | 0 mm | - | 13 W/m² | - |
| 1777768271 | 12.22° C | 51% | 1004.4 hPa | 0 mm | - | 16 W/m² | - |
| 1777767968 | 12.78° C | 50% | 1004.4 hPa | 0 mm | - | 19 W/m² | - |
| 1777767664 | 12.78° C | 48% | 1004.4 hPa | 0 mm | - | 23 W/m² | - |
| 1777767360 | 12.78° C | 48% | 1004.4 hPa | 0 mm | - | 30 W/m² | - |
| 1777767058 | 13.33° C | 48% | 1004.3 hPa | 0 mm | - | 37 W/m² | - |
| 1777766755 | 13.33° C | 47% | 1004.5 hPa | 0 mm | - | 47 W/m² | - |
| 1777766452 | 13.33° C | 47% | 1004.4 hPa | 0 mm | - | 62 W/m² | - |
* Rain latest hour (hover to see other rain measurements)
** Current wind speed in m/s (hover to see current wind gust speed)